Regional Weather Roundup
Issued by NWS

Home | Current Version | Previous Version | Text Only | Print | Product List | Glossary On
Versions: 1 2 3 4 5 6 7 8 9 10 11 12 13 14 15 16 17 18 19 20 21 22 23 24 25 26 27 28 29 30 31 32 33 34 35 36 37 38 39 40 41 42 43 44 45 46 47 48 49 50
000
ASUS43 KLSX 241907
RWRMO

WEATHER SUMMARY FOR MISSOURI
NATIONAL WEATHER SERVICE SPRINGFIELD MO
200 PM CDT FRI OCT 24 2014

NOTE: "FAIR" INDICATES FEW OR NO CLOUDS BELOW 12,000 FEET WITH NO
       SIGNIFICANT WEATHER AND/OR OBSTRUCTIONS TO VISIBILITY.
       CURRENT SKY AND/OR WEATHER CONDITIONS ARE NOT AVAILABLE FOR
       CHILLICOTHE AND FARMINGTON.

MOZ001>031-035>038-043-044-053-054-242000-
...NORTHERN AND WESTERN MISSOURI...

CITY           SKY/WX    TMP DP  RH WIND       PRES   REMARKS
KANSAS CTY INT CLOUDY    72  63  73 S14       29.98F
KANSAS C DTWN  CLOUDY    75  62  64 SW12      29.98F
LEE`S SUMMIT   PTSUNNY   73  61  65 SW14G20   30.00F
ST JOSEPH      CLOUDY    72  62  71 SW13      29.96F
CHILLICOTHE      N/A     69  61  75 S9        29.98F
KIRKSVILLE     CLOUDY    64  61  90 S13       29.99F FOG

$$
MOZ066>068-077>081-088>096-101>105-242000-
...SOUTHWEST MISSOURI...

CITY           SKY/WX    TMP DP  RH WIND       PRES   REMARKS
SPRINGFIELD    PTSUNNY   73  59  61 W8        30.08F
JOPLIN         CLOUDY    74  60  61 SW10      30.07F

$$
MOZ032>034-039>042-045>050-055>058-069>072-242000-
...CENTRAL MISSOURI...

CITY           SKY/WX    TMP DP  RH WIND       PRES   REMARKS
COLUMBIA       PTSUNNY   71  60  68 S10       30.04F
JEFFERSON CITY PTSUNNY   72  58  61 SE9       30.04F
ROLLA          PTSUNNY   67  57  70 SW7       30.07F
SEDALIA        PTSUNNY   72  59  63 S14       30.04F
WHITEMAN AFB   MOSUNNY   71  60  66 SW12      30.01F
OSAGE BEACH    PTSUNNY   73  55  53 SW7       30.06F

$$
MOZ051-052-059>065-242000-
...EAST CENTRAL MISSOURI...

CITY           SKY/WX    TMP DP  RH WIND       PRES   REMARKS
ST LOUIS INTL  PTSUNNY   72  52  49 S6        30.06F
SPIRIT OF STL  PTSUNNY   71  52  50 VRB6      30.05F
ST CHARLES     MOSUNNY   70  54  56 VRB3      30.05F

$$
MOZ072>076-082>087-097>100-106>115-242000-
...SOUTH CENTRAL AND SOUTHEAST MISSOURI...

CITY           SKY/WX    TMP DP  RH WIND       PRES   REMARKS
CAPE GIRARDEAU MOSUNNY   68  55  63 CALM      30.08F
FARMINGTON     SUNNY     72  48  43 CALM      30.10F
POPLAR BLUFF   SUNNY     69  53  56 SW7       30.09F
WEST PLAINS    MOSUNNY   70  56  61 W8        30.11F

$$



USA.gov is the U.S. government's official web portal to all federal, state and local government web resources and services.